Sharjah International Airport
OMSJ : now visible

Airfield :











YOU CAN JOIN US ON...

 
LOGIN :

Register | Disclaimer

   EN    FR    IT 

 









Legend :    VFR   Marginal VFR   IFR   Intensive IFR   Very Intensive IFR
Visi :
Ceiling :
>= 8 km
>= 3000ft
5 to 8 km
1000 to 3000 ft
1500m to 5 km
500 to 1000 ft
800 to 1500m
200 to 500 ft
< 800m
< 200 ft
Symbols :   Thunderstorms  Fog  Heavy snow  Heavy precipitations  Wind > 20 kt







- Airport Elevation : 111 ft
- IATA code : SHJ


OMSJ - Sharjah International

CURRENT METAR :
  • 161900Z 09004KT CAVOK 31/25 Q0999

EXPIRED METARs :
  • 161800Z 06003KT CAVOK 32/25 Q0999
  • 161700Z 31003KT CAVOK 34/27 Q0999

TAF TAF OMSJ
Valid from the 16 at 18:00 until the 18 at 00:00 UTC


161659Z 1618/1800 04007KT CAVOK
BECMG 1704/1706 18010KT
BECMG 1707/1709 32014KT
BECMG 1715/1717 18005KT
OMAE FIR / Asia



MET'MAP, your aeronautical weather chart ! - Copyright ORBIFLY December 2007 - Disclaimer

ORBIFLY MET'MAP TEAM :

Programming & Development : Alexandra Zaïnal
Concept & Development : Baudouin d'Aumeries
Co-Development & Prog : Marc-Olivier Méhu
Technical & hardware support : Manuel Goepfert

Contact : metmap@orbifly.com




SOURCES & CREDITS :

   NOAA       Earth
Advisory